Regional Weather Roundup
Issued by NWS

Home | Current Version | Previous Version | Text Only | Print | Product List | Glossary On
Versions: 1 2 3 4 5 6 7 8 9 10 11 12 13 14 15 16 17 18 19 20 21 22 23 24 25 26 27 28 29 30 31 32 33 34 35 36 37 38 39 40 41 42 43 44 45 46 47 48 49 50
000
ASUS44 KMEG 141000
RWRTN
TENNESSEE HOURLY STATE WEATHER ROUNDUP
NATIONAL WEATHER SERVICE MEMPHIS TN
400 AM CST THU DEC 14 2017

TNZ002-004-019-021-049-052-054-088>092-141100-
WEST TENNESSEE

CITY           SKY/WX    TMP DP  RH WIND       PRES   REMARKS
MEMPHIS INTL   PTCLDY    41  29  62 NW3       29.88S
NWS MEMPHIS      N/A     34 N/A N/A MISG        N/A
JACKSON        CLEAR     39  30  70 NE10      29.91R WCI  32
DYERSBURG      CLEAR     38  29  70 NE8       29.92R WCI  32
$$

TNZ008-025-027-028-033-062-065-066-141100-
NORTH MIDDLE TENNESSEE

CITY           SKY/WX    TMP DP  RH WIND       PRES   REMARKS
NASHVILLE      CLEAR     40  30  67 N13       29.88R WCI  32
CLARKSVILLE    MOCLDY    37  28  70 N10       29.88S WCI  30
SMYRNA         CLEAR     38  30  73 N9        29.88R WCI  31
CROSSVILLE     CLEAR     33  22  63 SW3       29.81R
$$

TNZ061-075-076-078-094-096-097-141100-
SOUTH MIDDLE TENNESSEE

CITY           SKY/WX    TMP DP  RH WIND       PRES   REMARKS
WINCHESTER     CLEAR     34  25  69 CALM      29.85R
$$

TNZ017-018-042-046-047-141100-
NORTHEAST TENNESSEE

CITY           SKY/WX    TMP DP  RH WIND       PRES   REMARKS
TRI CITIES     CLEAR     41  23  48 SW17      29.75R
$$

TNZ012-013-036-069-073-074-141100-
CENTRAL EAST TENNESSEE

CITY           SKY/WX    TMP DP  RH WIND       PRES   REMARKS
KNOXVILLE      CLEAR     37  26  64 SW9       29.81S WCI  30
OAK RIDGE      CLEAR     29  22  75 CALM      29.84R
$$

TNZ083-085-099-141100-
SOUTHEAST TENNESSEE

CITY           SKY/WX    TMP DP  RH WIND       PRES   REMARKS
CHATTANOOGA    CLEAR     33  24  69 CALM      29.85R
$$

SKY/WX REPORTED AS FAIR MEANS FEW OR NO CLOUDS BELOW
12 THOUSAND FEET.




USA.gov is the U.S. government's official web portal to all federal, state and local government web resources and services.